Regional Weather Roundup
Issued by NWS

Home | Current Version | Previous Version | Text Only | Print | Product List | Glossary On
Versions: 1 2 3 4 5 6 7 8 9 10 11 12 13 14 15 16 17 18 19 20 21 22 23 24 25 26 27 28 29 30 31 32 33 34 35 36 37 38 39 40 41 42 43 44 45 46 47 48 49 50
000
ASUS43 KDTX 251110
RWRMI
MICHIGAN HOURLY REGIONAL WEATHER ROUNDUP
NATIONAL WEATHER SERVICE DETROIT/PONTIAC MI
700 AM EDT SAT APR 25 2015

NOTE: "FAIR" INDICATES FEW OR NO CLOUDS BELOW 12,000 FEET WITH NO
SIGNIFICANT WEATHER AND/OR OBSTRUCTION TO VISIBILITY.

MIZ047>049-052>055-059>063-066>070-074>076-081>083-251200-
SOUTHEAST LOWER MICHIGAN

CITY           SKY/WX    TMP DP  RH WIND       PRES   REMARKS
ADRIAN         CLOUDY    41  39  93 E8        29.90F
ALMA           CLOUDY    36  22  57 NE7       29.94R
ANN ARBOR      CLOUDY    40  37  89 E8        29.91S
BAD AXE        PTCLDY    29  23  76 E3        29.97F
DETROIT CITY   CLOUDY    39  30  70 NE6       29.95F
DETROIT        CLOUDY    41  34  76 NE6       29.93F
FLINT          CLOUDY    39  20  46 E10       29.92F
GROSSE ILE     CLOUDY    39  37  93 NE5       29.92F
HILLSDALE      CLOUDY    40  39  95 E6        29.88R
HOWELL         MOCLDY    37  32  81 E6        29.89F

CITY           SKY/WX    TMP DP  RH WIND       PRES   REMARKS
JACKSON        CLOUDY    40  36  86 E8        29.89S
LAMBERTVILLE   CLOUDY    43  37  81 E5        29.90F
LANSING        MOCLDY    38  34  85 NE5       29.91S
LAPEER         NOT AVBL
MASON          CLOUDY    40  35  84 E6        29.90R
MONROE         CLOUDY    41  37  87 E6        29.90F
PONTIAC        CLOUDY    37  21  52 E8        29.91F
PORT HOPE        N/A     28  23  81 S3        29.98S
PORT HURON     MOCLDY    34  30  86 E3        29.97F
TRI CITIES     MOCLDY    34  23  64 NE8       29.95F
YPSILANTI      CLOUDY    42  34  73 E8        29.92F
$$
MIZ043>046-050>051-056>058-064>065-071>073-077>080-251200-
SOUTHWEST LOWER MICHIGAN

CITY           SKY/WX    TMP DP  RH WIND       PRES   REMARKS
BATTLE CREEK   CLOUDY    41  38  89 E7        29.88S
BENTON HARBOR  CLOUDY    43  37  79 E16       29.85R
BIG RAPIDS     CLOUDY    37  19  50 SE6       29.92R
COLDWATER      CLOUDY    41  36  81 E8        29.86F
HOLLAND        CLOUDY    44  38  79 E10       29.89R
GRAND RAPIDS   MOCLDY    38  32  79 NE9       29.90R
KALAMAZOO      CLOUDY    42  37  82 E5        29.87R
MARSHALL       CLOUDY    38  37  94 E3        29.88R
MUSKEGON       CLOUDY    42  35  76 NE10      29.90R
$$
MIZ016>042-251200-
NORTHERN LOWER MICHIGAN

CITY           SKY/WX    TMP DP  RH WIND       PRES   REMARKS
ALPENA         CLEAR     22  19  89 W3        30.00S
BEAVER ISLAND  CLEAR     22  20  93 CALM      30.00S
BELLAIRE       PTCLDY    29  23  78 CALM      29.99R
CADILLAC       PTCLDY    32  24  72 E6        29.93R
CHARLEVOIX     CLEAR     28  23  80 CALM      30.01F
FRANKFORT      MOSUNNY   38  20  48 E5        29.95S
GAYLORD        CLEAR     28  17  63 CALM      29.95F
GRAYLING       PTCLDY    27  21  78 CALM      29.96S
HARBOR SPRINGS CLEAR     24  18  78 CALM      29.99S
HOUGHTON LAKE  CLOUDY    32  22  66 E6        29.95S
MANISTEE       MOCLDY    36  21  55 E8        29.94R
OSCODA         CLEAR     22  20  91 CALM      29.99S
PELLSTON       CLEAR     18  16  92 CALM      30.00S
TRAVERSE CITY  MOCLDY    36  23  59 NE5       29.96S
$$
MIZ007>008-015-251200-
EASTERN UPPER MICHIGAN

CITY           SKY/WX    TMP DP  RH WIND       PRES   REMARKS
KINROSS        CLEAR     25  23  93 CALM      30.01R
MACKINAC ISLAN CLEAR     28  24  86 NE8       30.00S
NEWBERRY       CLEAR     24  21  89 N5        30.00R
S. S. MARIE    CLEAR     28  20  71 E3        30.01R
$$
MIZ004>006-011>014-085-251200-
CENTRAL UPPER MICHIGAN

CITY           SKY/WX    TMP DP  RH WIND       PRES   REMARKS
MANISTIQUE     CLEAR     23  19  84 N3        30.00S
ESCANABA       PTCLDY    30  25  80 N8        30.00S
MENOMINEE      CLOUDY    36  25  64 E10       29.96S
SAWYER-GWINN   CLEAR     27  19  74 CALM      29.99R
$$
MIZ001>003-009>011-084-251200-
WESTERN UPPER MICHIGAN

CITY           SKY/WX    TMP DP  RH WIND       PRES   REMARKS
IRON MOUNTAIN  CLOUDY    33  22  63 N6        29.96S
HOUGHTON       CLOUDY    30  24  78 E9        30.00R
COPPER HARBOR    N/A     26  21  81 W6        30.03S
IRONWOOD       CLOUDY    37  28  70 E3        29.93R
$$

ABBREVIATIONS USED IN REMARKS
   TC - TEMPERATURE IN CELSIUS
  WCI - WIND CHILL INDEX
   HX - HEAT INDEX
  VSB - VISIBILITY



USA.gov is the U.S. government's official web portal to all federal, state and local government web resources and services.